Volver al catálogo

STARLINK-30312

ActivoComunicacionesVLEO
NORAD 57641·PAYLOAD·🇺🇸 United States

Lanzado Aug 17, 2023 desde Cape Canaveral Space Force Station

Loading…

Próximos Pases (próximas 24 horas)

TLE

ActualizadoSource: CelesTrak SupGP

Época: Sep 15, 2026, 02:36 UTC

1 57641C 23122K   26258.10881944  .00015795  00000+0  57196-3 0  2586
2 57641  42.9989 102.3558 0001509 270.9364 352.5908 15.27578053    12

Sigue STARLINK-30312 en tiempo real con AllMySat

Download on the App Store